Flag for Germany Weather past 2 weeks in Witzenhausen, Hesse, Germany

Now
50 °F

Clear.


Feels Like: 50 °F
Forecast: 41 / 75 °F
Wind: 1 mph from North

Location: Kassel / Calden


UV Index: 3 (Moderate)

Visibility: N/A


Pressure: 30.12 "Hg

Humidity: 100%

Dew point: 50 °F

Location of WitzenhausenLocation

Historic Weather in Witzenhausen

°F

Witzenhausen temperature yesterday

Maximum temperature yesterday: 63 °F (at 4:20 PM)
Minimum temperature yesterday: 45 °F (at 5:50 AM)
Average temperature yesterday: 54 °F

Past Weeks' High & Low Weather Summary

 TemperatureHumidityPressure
High66 °F (Apr 20, 4:20 PM)100% (Apr 10, 5:50 AM)30.45 "Hg (Apr 10, 5:50 AM)
Low30 °F (Apr 16, 5:50 AM)33% (Apr 17, 6:20 PM)29.62 "Hg (Apr 21, 4:20 PM)
Average49 °F73%30.03 "Hg
* Reported Apr 8 9:20 AM — Apr 23 9:20 AM, Witzenhausen, Weather by CustomWeather, © 2014

Note: Actual official high and low records may vary slightly from our data, if they occured in-between our weather recording intervals... More about our weather records

Advertising

Historic Weather Conditions — Data for Previous 24 hours

 ConditionsComfort  
Time TempWeatherWind HumidityBarometerVisibility
9:20 AM
Apr 23
48 °FFog.2 mph100%30.12 "Hg0 mi
8:50 AM46 °FFog.3 mph100%30.09 "Hg0 mi
8:20 AM46 °FFog.2 mph93%30.09 "Hg0 mi
7:50 AM45 °FFog.3 mph100%30.09 "Hg0 mi
7:20 AM45 °FFog.2 mph100%30.09 "Hg0 mi
6:50 AM43 °FFog.3 mph100%30.09 "Hg0 mi
6:20 AM43 °FLight fog.2 mph100%30.09 "Hg0 mi
5:50 AM43 °FFog.2 mph100%30.07 "Hg0 mi
9:50 PM
Apr 22
50 °FClear.3 mph94%29.98 "Hg10 mi
9:20 PM50 °FSunny.3 mph94%29.98 "Hg10 mi
8:50 PM54 °FSunny.2 mph88%29.98 "Hg10 mi
8:20 PM55 °FSunny.3 mph82%29.95 "Hg10 mi
7:50 PM57 °FSunny.2 mph72%29.95 "Hg10 mi
7:20 PM59 °FScattered clouds.5 mph63%29.95 "HgN/A
6:50 PM57 °FScattered clouds.6 mph77%29.95 "HgN/A
6:20 PM57 °FBroken clouds.7 mph77%29.92 "HgN/A
5:50 PM57 °FLight rain. Broken clouds.8 mph77%29.92 "HgN/A
5:20 PM55 °FThundershowers. Broken clouds.14 mph77%29.92 "HgN/A
4:56 PM59 °FThundershowers. Broken clouds.8 mph68%29.92 "HgN/A
4:50 PM59 °FBroken clouds.7 mph68%29.92 "HgN/A
4:20 PM63 °FScattered clouds.5 mph59%29.89 "HgN/A
3:50 PM61 °FScattered clouds.3 mph63%29.89 "HgN/A
3:20 PM61 °FScattered clouds.5 mph68%29.89 "HgN/A
2:50 PM59 °FBroken clouds.5 mph68%29.89 "HgN/A
2:20 PM59 °FBroken clouds.1 mph72%29.89 "HgN/A
1:50 PM55 °FBroken clouds.5 mph82%29.89 "HgN/A
1:20 PM55 °FScattered clouds.8 mph77%29.89 "HgN/A
12:50 PM55 °FScattered clouds.7 mph82%29.89 "HgN/A
12:20 PM55 °FBroken clouds.7 mph82%29.89 "HgN/A
11:50 AM54 °FPartly sunny.7 mph82%29.86 "HgN/A
11:20 AM54 °FPartly sunny.7 mph88%29.86 "HgN/A
10:50 AM54 °FPartly sunny.6 mph82%29.86 "Hg6 mi
10:20 AM52 °FPartly sunny.5 mph88%29.83 "Hg5 mi
Weather by CustomWeather, © 2014

See weather overview